{"data":{"norad_id":57713,"intl_designator":"2023-129R","name":"STARLINK-30349","alt_names":[],"object_type":"PAYLOAD","status":"ACTIVE","operator":null,"country":"US","launch_date":"2023-08-27","launch_site_code":"AFETR","launch_vehicle":null,"mission":null,"orbit_class":"UNKNOWN","rcs_meters":null,"size_class":null,"mass_kg":null,"dimensions":null,"purposes":["comms"],"wikipedia_slug":null,"has_3d_model":false,"image_url":null,"decayed_at":null,"tle_current":{"epoch":"2026-05-25T01:59:25.816416Z","epoch_age_seconds":74659,"freshness":"FRESH","line1":"1 57713U 23129R   26145.08293769  .00000891  00000+0  41906-4 0  9993","line2":"2 57713  43.0036  46.6655 0000856 269.6410  90.4343 15.27579610152228","mean_motion":15.2757961,"eccentricity":8.56e-5,"inclination_deg":43.0036,"raan_deg":46.6655,"arg_perigee_deg":269.641,"mean_anomaly_deg":90.4343,"bstar":4.1906e-5,"rev_number":15222,"period_min":94.266772780503,"perigee_km":482.46294621042,"apogee_km":483.63758146999,"semimajor_km":6861.1872638402,"source":"CELESTRAK","updated_at":"2026-05-25T13:38:18.373720Z"}}}